Regional Weather Roundup
Issued by NWS

Home | Current Version | Previous Version | Text Only | Print | Product List | Glossary On
Versions: 1 2 3 4 5 6 7 8 9 10 11 12 13 14 15 16 17 18 19 20 21 22 23 24 25 26 27 28
000
ASUS45 KREV 250410
RWRNV
NEVADA REGIONAL WEATHER ROUNDUP
NATIONAL WEATHER SERVICE RENO NV
900 PM PDT SUN JUL 24 2016

NOTE: "FAIR" INDICATES FEW OR NO CLOUDS BELOW 12,000 FEET WITH NO
SIGNIFICANT WEATHER AND/OR OBSTRUCTIONS TO VISIBILITY.

NVZ001-003-004-250500-
WESTERN NEVADA

CITY           SKY/WX    TMP DP  RH WIND       PRES   REMARKS
RENO           CLEAR     83  35  18 W14       30.05R
CARSON CITY    FAIR      81  32  17 W8        30.10R
MINDEN         FAIR      73  36  25 SW6       30.11R
PYRAMID LAKE     N/A     86 N/A N/A SW9         N/A
FALLON         CLEAR     81  26  13 W14       29.97R
LOVELOCK       CLEAR     85  17   8 CALM      29.96R
$$

NVZ002-CAZ072-073-250500-
NORTHERN AND CENTRAL SIERRA

CITY           SKY/WX    TMP DP  RH WIND       PRES   REMARKS
S. LAKE TAHOE  CLEAR     63  37  38 CALM      30.24R
TRUCKEE        CLEAR     68  32  26 SW3       30.22R
SQUAW VLY 8000 NOT AVBL
MAMMOTH LAKES    N/A     70  28  21 NW5       30.28S
BRIDGEPORT       N/A     71  27  19 VRB3      30.23R
$$

NVZ030-031-036-250500-
NORTHERN NEVADA

CITY           SKY/WX    TMP DP  RH WIND       PRES   REMARKS
ELKO           CLEAR     78  20  11 CALM      30.06R
WINNEMUCCA     CLEAR     80  20  10 NE5       30.01R
WENDOVER       CLEAR     81  30  16 NW6       30.03R
$$

NVZ035-037-250500-
CENTRAL NEVADA

CITY           SKY/WX    TMP DP  RH WIND       PRES   REMARKS
ELY            PTCLDY    75  28  17 S9        30.13R
EUREKA           N/A     73  26  17 VRB6      30.11R
$$

NVZ013-014-250500-
SOUTH CENTRAL NEVADA

CITY           SKY/WX    TMP DP  RH WIND       PRES   REMARKS
TONOPAH        CLEAR     86  20   9 SW8       30.07R
$$

NVZ017-020-022-250500-
SOUTHERN NEVADA

CITY           SKY/WX    TMP DP  RH WIND       PRES   REMARKS
LAS VEGAS      CLEAR    103  33   9 S9        29.77R
N. LAS VEGAS   CLEAR    102  38  11 S12       29.79R
NELLIS AFB     CLEAR    102  41  12 SE5       29.77R
HENDERSON      CLEAR     99  48  17 S10       29.86R
MERCURY        CLEAR     96  25   8 SE6       29.90R
$$




USA.gov is the U.S. government's official web portal to all federal, state and local government web resources and services.